Location: Gloden
(48.4833°N, 15.3167°E)
Time: 02:53:55
(UTC+00:00)

USA 238 DEB - Pass Details

Date: 15 December 2019
Orbit: 1024 x 1188 km, 63.4° (Epoch: 16 January)

Event Time Altitude Azimuth Distance (km) Brightness Sun altitude
Rises 05:40:22 0° 233° (SW) 3,779 6.3 -9.9°
Reaches altitude 10° 05:42:59 10° 237° (WSW) 2,842 5.6 -9.5°
Maximum altitude 05:49:37 62° 318° (NW) 1,193 3.7 -8.5°
Drops below altitude 10° 05:56:32 10° 39° (NE) 2,956 6.2 -7.5°
Sets 05:59:19 0° 43° (NE) 3,941 6.9 -7.1°
